QPF
0.00 0.00 0.00 0.00 0.00 0.00 0.00 0.00 0.00 0.00 0.00 0.00 0.00 0.01 0.02 0.01 0.01 0.02 0.02 0.02 0.03 0.05 0.06 0.06 0.05 0.05 0.05 0.04 0.03 0.02 0.02 0.01 0.02 0.02 0.02 0.03 0.03 0.04 0.04 0.03 0.03 0.04 0.05 0.04
0.00 0.00 0.00 0.00 0.00 0.00 0.00 0.00 0.00 0.00 0.00 0.00 0.01 0.01 0.01 0.01 0.01 0.01 0.01 0.01 0.02 0.04 0.05 0.06 0.05 0.05 0.05 0.05 0.03 0.02 0.01 0.01 0.02 0.02 0.01 0.02 0.02 0.02 0.03 0.03 0.03 0.03 0.03 0.04
0.00 0.00 0.00 0.00 0.00 0.00 0.00 0.00 0.00 0.00 0.00 0.01 0.01 0.01 0.01 0.00 0.01 0.01 0.01 0.01 0.02 0.04 0.04 0.06 0.06 0.05 0.04 0.05 0.04 0.02 0.01 0.01 0.01 0.02 0.02 0.01 0.01 0.02 0.02 0.03 0.03 0.03 0.03 0.03
0.00 0.00 0.00 0.00 0.00 0.00 0.00 0.00 0.00 0.00 0.01 0.02 0.01 0.01 0.01 0.00 0.01 0.01 0.01 0.01 0.01 0.03 0.05 0.06 0.06 0.05 0.04 0.04 0.03 0.02 0.02 0.01 0.02 0.02 0.02 0.01 0.02 0.02 0.02 0.02 0.03 0.03 0.03 0.02
0.01 0.01 0.00 0.00 0.00 0.00 0.00 0.00 0.01 0.01 0.01 0.02 0.02 0.01 0.01 0.01 0.01 0.01 0.01 0.01 0.01 0.02 0.05 0.07 0.07 0.06 0.06 0.05 0.03 0.02 0.02 0.02 0.01 0.02 0.02 0.01 0.02 0.02 0.02 0.02 0.02 0.02 0.02 0.02
0.01 0.01 0.01 0.00 0.00 0.00 0.00 0.01 0.01 0.01 0.01 0.01 0.01 0.01 0.01 0.01 0.01 0.00 0.00 0.01 0.01 0.02 0.05 0.07 0.07 0.06 0.06 0.05 0.02 0.01 0.01 0.02 0.02 0.02 0.02 0.01 0.01 0.02 0.02 0.02 0.02 0.02 0.02 0.02
0.01 0.01 0.01 0.00 0.00 0.00 0.01 0.01 0.00 0.00 0.00 0.01 0.01 0.01 0.00 0.00 0.00 0.00 0.00 0.01 0.02 0.02 0.06 0.07 0.06 0.04 0.03 0.03 0.02 0.02 0.02 0.02 0.02 0.02 0.03 0.02 0.02 0.02 0.02 0.03 0.02 0.02 0.01 0.02
0.01 0.01 0.01 0.00 0.00 0.00 0.01 0.01 0.00 0.00 0.00 0.00 0.01 0.01 0.01 0.01 0.00 0.00 0.00 0.01 0.02 0.03 0.07 0.07 0.05 0.03 0.02 0.02 0.02 0.02 0.02 0.01 0.01 0.01 0.02 0.02 0.03 0.03 0.03 0.03 0.02 0.02 0.01 0.01
0.01 0.01 0.01 0.00 0.00 0.00 0.00 0.00 0.00 0.00 0.01 0.01 0.01 0.01 0.01 0.01 0.01 0.01 0.01 0.01 0.01 0.03 0.07 0.07 0.05 0.03 0.01 0.01 0.01 0.02 0.02 0.01 0.01 0.01 0.01 0.02 0.02 0.03 0.03 0.04 0.03 0.02 0.02 0.01
0.01 0.01 0.00 0.00 0.00 0.00 0.00 0.00 0.00 0.00 0.01 0.01 0.01 0.02 0.01 0.01 0.01 0.01 0.01 0.01 0.01 0.04 0.07 0.06 0.05 0.02 0.01 0.00 0.00 0.01 0.02 0.01 0.01 0.01 0.01 0.01 0.01 0.02 0.02 0.02 0.03 0.03 0.02 0.02
0.01 0.01 0.00 0.00 0.00 0.00 0.00 0.00 0.00 0.00 0.00 0.01 0.01 0.02 0.02 0.01 0.01 0.01 0.01 0.01 0.01 0.04 0.06 0.05 0.04 0.01 0.01 0.00 0.00 0.01 0.02 0.01 0.01 0.01 0.01 0.01 0.01 0.02 0.02 0.02 0.02 0.03 0.02 0.02
0.02 0.01 0.01 0.00 0.00 0.00 0.00 0.00 0.00 0.00 0.00 0.01 0.01 0.01 0.01 0.01 0.01 0.01 0.01 0.01 0.01 0.03 0.04 0.04 0.03 0.01 0.01 0.01 0.00 0.01 0.02 0.01 0.01 0.02 0.02 0.02 0.03 0.03 0.03 0.03 0.03 0.03 0.03 0.02
0.02 0.01 0.01 0.01 0.00 0.00 0.00 0.00 0.00 0.00 0.00 0.00 0.01 0.01 0.01 0.01 0.01 0.01 0.01 0.01 0.01 0.02 0.02 0.02 0.02 0.00 0.00 0.01 0.01 0.01 0.01 0.01 0.02 0.02 0.02 0.03 0.04 0.05 0.05 0.05 0.04 0.04 0.04 0.04
0.01 0.01 0.01 0.01 0.01 0.00 0.00 0.00 0.00 0.00 0.00 0.00 0.01 0.01 0.01 0.01 0.01 0.00 0.00 0.00 0.01 0.01 0.01 0.01 0.01 0.00 0.00 0.01 0.01 0.01 0.01 0.01 0.01 0.01 0.01 0.02 0.03 0.04 0.05 0.06 0.05 0.05 0.04 0.04
0.01 0.01 0.01 0.01 0.01 0.00 0.00 0.00 0.00 0.00 0.00 0.00 0.01 0.00 0.00 0.00 0.00 0.01 0.00 0.00 0.01 0.01 0.01 0.01 0.01 0.00 0.00 0.01 0.01 0.01 0.00 0.00 0.00 0.01 0.01 0.01 0.02 0.02 0.03 0.03 0.04 0.04 0.04 0.03
0.01 0.01 0.01 0.01 0.01 0.01 0.00 0.00 0.00 0.00 0.01 0.01 0.01 0.01 0.01 0.01 0.01 0.01 0.01 0.01 0.01 0.01 0.01 0.01 0.01 0.01 0.01 0.01 0.01 0.01 0.00 0.00 0.00 0.00 0.00 0.01 0.01 0.02 0.02 0.02 0.02 0.02 0.02 0.02
0.00 0.00 0.00 0.01 0.01 0.00 0.00 0.01 0.01 0.01 0.02 0.02 0.02 0.01 0.01 0.01 0.01 0.01 0.01 0.01 0.01 0.01 0.01 0.01 0.01 0.02 0.02 0.01 0.01 0.00 0.00 0.00 0.00 0.00 0.00 0.01 0.01 0.01 0.02 0.02 0.02 0.02 0.02 0.02
0.00 0.00 0.00 0.00 0.00 0.00 0.01 0.02 0.01 0.02 0.02 0.02 0.02 0.01 0.01 0.01 0.01 0.01 0.01 0.01 0.01 0.01 0.01 0.02 0.01 0.01 0.01 0.01 0.00 0.00 0.00 0.00 0.00 0.00 0.00 0.01 0.01 0.01 0.01 0.01 0.02 0.02 0.02 0.02
0.00 0.00 0.00 0.00 0.00 0.01 0.01 0.02 0.03 0.03 0.03 0.02 0.02 0.01 0.01 0.02 0.03 0.02 0.01 0.01 0.02 0.02 0.02 0.01 0.01 0.01 0.01 0.00 0.00 0.00 0.00 0.00 0.00 0.00 0.00 0.01 0.01 0.01 0.01 0.01 0.01 0.02 0.01 0.01
0.00 0.00 0.01 0.00 0.00 0.01 0.02 0.03 0.03 0.03 0.02 0.02 0.02 0.01 0.01 0.02 0.03 0.02 0.02 0.02 0.02 0.02 0.02 0.01 0.01 0.01 0.01 0.01 0.01 0.00 0.00 0.00 0.00 0.01 0.01 0.01 0.01 0.01 0.01 0.01 0.01 0.01 0.01 0.01
0.00 0.00 0.00 0.01 0.01 0.01 0.02 0.02 0.02 0.02 0.02 0.02 0.02 0.02 0.01 0.02 0.02 0.02 0.03 0.02 0.02 0.03 0.02 0.02 0.02 0.01 0.01 0.01 0.01 0.01 0.01 0.01 0.01 0.01 0.01 0.01 0.01 0.01 0.01 0.01 0.01 0.01 0.01 0.01
0.00 0.00 0.00 0.00 0.01 0.01 0.02 0.02 0.02 0.02 0.02 0.02 0.02 0.02 0.02 0.02 0.02 0.01 0.01 0.02 0.03 0.03 0.03 0.03 0.03 0.03 0.02 0.02 0.01 0.01 0.01 0.01 0.01 0.01 0.01 0.01 0.01 0.01 0.01 0.01 0.01 0.01 0.01 0.01
0.00 0.01 0.00 0.01 0.01 0.01 0.02 0.01 0.02 0.02 0.03 0.02 0.02 0.02 0.02 0.02 0.02 0.01 0.01 0.01 0.01 0.02 0.03 0.03 0.03 0.04 0.04 0.04 0.03 0.02 0.01 0.01 0.01 0.01 0.01 0.01 0.01 0.01 0.01 0.01 0.01 0.01 0.01 0.01
0.01 0.03 0.01 0.00 0.00 0.01 0.01 0.02 0.02 0.03 0.03 0.03 0.03 0.03 0.02 0.03 0.03 0.01 0.01 0.01 0.01 0.02 0.03 0.03 0.03 0.04 0.05 0.04 0.03 0.02 0.01 0.01 0.01 0.01 0.01 0.01 0.01 0.01 0.01 0.01 0.01 0.01 0.01 0.01
0.01 0.01 0.01 0.00 0.00 0.01 0.01 0.01 0.02 0.03 0.03 0.04 0.04 0.03 0.02 0.03 0.03 0.03 0.02 0.01 0.01 0.01 0.01 0.02 0.03 0.03 0.03 0.02 0.02 0.02 0.01 0.01 0.01 0.01 0.01 0.01 0.01 0.01 0.01 0.01 0.01 0.01 0.01 0.01
0.00 0.00 0.00 0.00 0.00 0.01 0.01 0.01 0.02 0.02 0.03 0.04 0.06 0.05 0.04 0.03 0.03 0.03 0.02 0.01 0.01 0.01 0.01 0.01 0.02 0.02 0.02 0.02 0.02 0.02 0.02 0.01 0.01 0.01 0.01 0.01 0.01 0.01 0.01 0.01 0.01 0.01 0.01 0.01
0.00 0.00 0.00 0.00 0.00 0.00 0.00 0.01 0.02 0.03 0.03 0.04 0.05 0.04 0.04 0.04 0.03 0.03 0.02 0.02 0.01 0.01 0.01 0.01 0.01 0.01 0.01 0.02 0.02 0.02 0.02 0.01 0.01 0.01 0.02 0.02 0.02 0.02 0.01 0.01 0.01 0.01 0.01 0.01
MSLP
1014.32 1014.45 1014.51 1014.52 1014.49 1014.42 1014.33 1014.21 1014.06 1013.89 1013.70 1013.51 1013.32 1013.16 1013.01 1012.89 1012.79 1012.69 1012.58 1012.44 1012.25 1012.02 1011.74 1011.43 1011.10 1010.78 1010.49 1010.25 1010.09 1010.01 1010.02 1010.11 1010.27 1010.51 1010.79 1011.12 1011.47 1011.83 1012.19 1012.54 1012.87 1013.18 1013.47 1013.74
1014.40 1014.45 1014.41 1014.29 1014.11 1013.91 1013.70 1013.50 1013.33 1013.19 1013.09 1013.04 1013.02 1013.02 1013.03 1013.03 1013.02 1012.97 1012.88 1012.73 1012.52 1012.26 1011.95 1011.62 1011.27 1010.93 1010.62 1010.35 1010.15 1010.01 1009.95 1009.97 1010.08 1010.26 1010.50 1010.81 1011.16 1011.54 1011.93 1012.31 1012.67 1013.01 1013.31 1013.59
1014.34 1014.33 1014.21 1013.99 1013.72 1013.42 1013.14 1012.90 1012.73 1012.63 1012.61 1012.66 1012.75 1012.87 1012.99 1013.08 1013.13 1013.11 1013.03 1012.87 1012.65 1012.37 1012.05 1011.70 1011.35 1011.00 1010.68 1010.38 1010.14 1009.94 1009.82 1009.78 1009.82 1009.95 1010.16 1010.46 1010.82 1011.23 1011.66 1012.09 1012.49 1012.86 1013.18 1013.48
1014.14 1014.07 1013.90 1013.62 1013.30 1012.96 1012.66 1012.41 1012.25 1012.19 1012.23 1012.34 1012.51 1012.69 1012.87 1013.00 1013.07 1013.07 1012.98 1012.82 1012.59 1012.31 1012.00 1011.66 1011.32 1010.97 1010.64 1010.32 1010.04 1009.80 1009.62 1009.51 1009.50 1009.58 1009.78 1010.07 1010.45 1010.90 1011.37 1011.85 1012.31 1012.72 1013.08 1013.39
1013.79 1013.68 1013.47 1013.19 1012.86 1012.52 1012.23 1012.01 1011.88 1011.85 1011.92 1012.06 1012.26 1012.46 1012.64 1012.77 1012.84 1012.83 1012.74 1012.58 1012.36 1012.09 1011.80 1011.49 1011.16 1010.83 1010.50 1010.17 1009.85 1009.57 1009.34 1009.18 1009.12 1009.18 1009.35 1009.65 1010.06 1010.54 1011.06 1011.60 1012.11 1012.57 1012.97 1013.31
1013.31 1013.16 1012.95 1012.68 1012.38 1012.09 1011.84 1011.66 1011.57 1011.57 1011.65 1011.79 1011.97 1012.16 1012.31 1012.42 1012.46 1012.43 1012.33 1012.18 1011.98 1011.74 1011.48 1011.21 1010.91 1010.60 1010.27 1009.93 1009.59 1009.27 1009.00 1008.80 1008.71 1008.73 1008.90 1009.21 1009.63 1010.15 1010.73 1011.32 1011.88 1012.39 1012.83 1013.20
1012.72 1012.55 1012.34 1012.10 1011.86 1011.64 1011.46 1011.34 1011.29 1011.32 1011.40 1011.53 1011.67 1011.81 1011.92 1011.98 1011.99 1011.94 1011.84 1011.69 1011.52 1011.32 1011.09 1010.85 1010.58 1010.29 1009.96 1009.61 1009.25 1008.90 1008.60 1008.37 1008.25 1008.26 1008.42 1008.73 1009.18 1009.73 1010.35 1010.98 1011.59 1012.16 1012.64 1013.05
1012.06 1011.87 1011.68 1011.50 1011.33 1011.19 1011.09 1011.04 1011.04 1011.09 1011.17 1011.27 1011.37 1011.46 1011.52 1011.53 1011.50 1011.43 1011.33 1011.20 1011.04 1010.87 1010.68 1010.46 1010.21 1009.92 1009.59 1009.22 1008.83 1008.46 1008.12 1007.87 1007.73 1007.73 1007.90 1008.23 1008.69 1009.27 1009.92 1010.59 1011.24 1011.84 1012.38 1012.83
1011.38 1011.18 1011.01 1010.89 1010.80 1010.75 1010.73 1010.75 1010.80 1010.87 1010.95 1011.03 1011.10 1011.14 1011.15 1011.13 1011.07 1010.99 1010.89 1010.76 1010.62 1010.47 1010.28 1010.06 1009.80 1009.49 1009.13 1008.73 1008.32 1007.91 1007.56 1007.29 1007.14 1007.15 1007.33 1007.67 1008.16 1008.76 1009.43 1010.13 1010.81 1011.45 1012.02 1012.52
1010.73 1010.52 1010.38 1010.31 1010.30 1010.33 1010.40 1010.49 1010.58 1010.68 1010.77 1010.83 1010.88 1010.89 1010.87 1010.83 1010.76 1010.67 1010.56 1010.44 1010.29 1010.13 1009.92 1009.67 1009.37 1009.01 1008.59 1008.14 1007.68 1007.25 1006.87 1006.60 1006.47 1006.49 1006.69 1007.06 1007.57 1008.20 1008.89 1009.61 1010.32 1010.98 1011.58 1012.12
1010.14 1009.92 1009.81 1009.80 1009.85 1009.96 1010.09 1010.24 1010.38 1010.51 1010.61 1010.68 1010.72 1010.72 1010.70 1010.64 1010.57 1010.48 1010.37 1010.23 1010.06 1009.85 1009.59 1009.27 1008.89 1008.44 1007.95 1007.43 1006.91 1006.44 1006.05 1005.79 1005.68 1005.74 1005.98 1006.39 1006.94 1007.59 1008.31 1009.05 1009.77 1010.45 1011.08 1011.65
1009.62 1009.42 1009.34 1009.36 1009.47 1009.63 1009.82 1010.02 1010.20 1010.35 1010.47 1010.56 1010.61 1010.62 1010.61 1010.57 1010.51 1010.42 1010.29 1010.13 1009.91 1009.64 1009.29 1008.86 1008.36 1007.79 1007.19 1006.58 1006.00 1005.49 1005.10 1004.85 1004.78 1004.90 1005.20 1005.67 1006.27 1006.96 1007.71 1008.46 1009.20 1009.89 1010.53 1011.12
1009.18 1009.00 1008.95 1009.01 1009.16 1009.36 1009.59 1009.82 1010.03 1010.20 1010.35 1010.45 1010.52 1010.57 1010.58 1010.56 1010.52 1010.43 1010.29 1010.09 1009.81 1009.44 1008.97 1008.41 1007.77 1007.06 1006.33 1005.62 1004.97 1004.42 1004.02 1003.80 1003.78 1003.97 1004.35 1004.89 1005.56 1006.31 1007.09 1007.88 1008.62 1009.32 1009.97 1010.56
1008.79 1008.65 1008.64 1008.74 1008.92 1009.15 1009.40 1009.64 1009.86 1010.05 1010.21 1010.34 1010.44 1010.51 1010.56 1010.57 1010.55 1010.47 1010.31 1010.06 1009.71 1009.23 1008.63 1007.92 1007.13 1006.27 1005.41 1004.58 1003.85 1003.27 1002.86 1002.68 1002.72 1002.98 1003.44 1004.07 1004.81 1005.63 1006.46 1007.28 1008.05 1008.76 1009.40 1009.99
1008.44 1008.36 1008.40 1008.54 1008.74 1008.99 1009.24 1009.49 1009.70 1009.90 1010.06 1010.20 1010.32 1010.43 1010.51 1010.55 1010.55 1010.47 1010.30 1010.01 1009.57 1008.99 1008.27 1007.41 1006.46 1005.46 1004.46 1003.53 1002.72 1002.09 1001.69 1001.52 1001.61 1001.94 1002.49 1003.20 1004.02 1004.90 1005.79 1006.65 1007.45 1008.17 1008.82 1009.41
1008.12 1008.11 1008.21 1008.39 1008.62 1008.88 1009.12 1009.35 1009.55 1009.73 1009.89 1010.03 1010.16 1010.28 1010.39 1010.46 1010.47 1010.40 1010.22 1009.89 1009.39 1008.72 1007.88 1006.90 1005.82 1004.68 1003.57 1002.53 1001.65 1000.97 1000.55 1000.39 1000.52 1000.90 1001.50 1002.28 1003.16 1004.11 1005.05 1005.95 1006.78 1007.53 1008.20 1008.79
1007.81 1007.90 1008.07 1008.29 1008.55 1008.80 1009.03 1009.24 1009.41 1009.55 1009.69 1009.81 1009.94 1010.07 1010.18 1010.27 1010.30 1010.23 1010.04 1009.68 1009.14 1008.40 1007.49 1006.41 1005.23 1003.99 1002.78 1001.66 1000.71 999.98 999.52 999.35 999.47 999.86 1000.49 1001.30 1002.23 1003.22 1004.20 1005.14 1006.01 1006.79 1007.48 1008.09
1007.53 1007.71 1007.96 1008.23 1008.51 1008.76 1008.97 1009.13 1009.26 1009.36 1009.46 1009.55 1009.65 1009.77 1009.88 1009.97 1010.01 1009.94 1009.75 1009.38 1008.82 1008.06 1007.10 1005.98 1004.73 1003.44 1002.16 1000.97 999.96 999.17 998.66 998.44 998.52 998.89 999.50 1000.29 1001.22 1002.21 1003.22 1004.18 1005.09 1005.90 1006.62 1007.26
1007.29 1007.56 1007.87 1008.19 1008.48 1008.72 1008.90 1009.02 1009.10 1009.15 1009.18 1009.23 1009.29 1009.38 1009.47 1009.56 1009.59 1009.53 1009.35 1009.00 1008.45 1007.69 1006.74 1005.61 1004.36 1003.05 1001.73 1000.51 999.45 998.60 998.02 997.73 997.73 998.02 998.55 999.29 1000.16 1001.11 1002.10 1003.07 1003.98 1004.83 1005.59 1006.27
1007.10 1007.44 1007.81 1008.15 1008.44 1008.66 1008.81 1008.89 1008.91 1008.89 1008.87 1008.85 1008.87 1008.91 1008.97 1009.03 1009.06 1009.01 1008.85 1008.52 1008.01 1007.30 1006.39 1005.31 1004.10 1002.82 1001.52 1000.29 999.19 998.30 997.64 997.25 997.14 997.31 997.72 998.34 999.10 999.97 1000.90 1001.83 1002.74 1003.59 1004.38 1005.09
1006.97 1007.35 1007.74 1008.09 1008.37 1008.56 1008.67 1008.70 1008.66 1008.58 1008.49 1008.42 1008.37 1008.37 1008.39 1008.42 1008.44 1008.39 1008.25 1007.97 1007.52 1006.89 1006.06 1005.07 1003.95 1002.73 1001.49 1000.29 999.19 998.25 997.52 997.03 996.80 996.81 997.06 997.52 998.14 998.88 999.70 1000.56 1001.42 1002.26 1003.05 1003.78
1006.90 1007.28 1007.65 1007.98 1008.24 1008.40 1008.46 1008.44 1008.35 1008.21 1008.06 1007.93 1007.83 1007.77 1007.75 1007.75 1007.75 1007.71 1007.59 1007.36 1006.99 1006.45 1005.74 1004.87 1003.86 1002.76 1001.61 1000.47 999.40 998.46 997.67 997.08 996.72 996.57 996.64 996.92 997.36 997.93 998.61 999.36 1000.13 1000.92 1001.68 1002.41
1006.86 1007.21 1007.54 1007.83 1008.04 1008.15 1008.17 1008.10 1007.96 1007.78 1007.59 1007.40 1007.25 1007.14 1007.08 1007.05 1007.03 1006.99 1006.90 1006.72 1006.42 1005.98 1005.40 1004.67 1003.81 1002.85 1001.83 1000.79 999.78 998.85 998.05 997.39 996.91 996.61 996.51 996.60 996.85 997.24 997.75 998.35 999.00 999.70 1000.40 1001.09
1006.83 1007.12 1007.39 1007.62 1007.77 1007.83 1007.80 1007.70 1007.52 1007.31 1007.08 1006.85 1006.66 1006.52 1006.41 1006.35 1006.31 1006.27 1006.20 1006.06 1005.84 1005.50 1005.04 1004.46 1003.76 1002.96 1002.08 1001.17 1000.26 999.39 998.59 997.90 997.34 996.93 996.68 996.59 996.66 996.86 997.19 997.63 998.14 998.71 999.32 999.93
1006.79 1006.99 1007.18 1007.34 1007.42 1007.43 1007.37 1007.23 1007.04 1006.81 1006.56 1006.32 1006.10 1005.93 1005.80 1005.71 1005.64 1005.59 1005.52 1005.42 1005.26 1005.01 1004.66 1004.22 1003.67 1003.03 1002.32 1001.55 1000.76 999.98 999.23 998.55 997.96 997.47 997.11 996.89 996.79 996.83 996.99 997.26 997.62 998.05 998.53 999.04
1006.69 1006.81 1006.91 1006.99 1007.01 1006.98 1006.88 1006.73 1006.53 1006.30 1006.05 1005.81 1005.59 1005.40 1005.25 1005.13 1005.05 1004.98 1004.91 1004.82 1004.69 1004.51 1004.26 1003.93 1003.52 1003.03 1002.48 1001.86 1001.21 1000.54 999.88 999.25 998.67 998.15 997.73 997.41 997.20 997.10 997.12 997.23 997.44 997.73 998.07 998.46
1006.49 1006.53 1006.55 1006.56 1006.53 1006.46 1006.35 1006.19 1006.00 1005.79 1005.56 1005.34 1005.13 1004.94 1004.78 1004.64 1004.53 1004.44 1004.36 1004.27 1004.16 1004.01 1003.83 1003.59 1003.29 1002.93 1002.52 1002.05 1001.53 1000.99 1000.44 999.89 999.36 998.86 998.43 998.06 997.78 997.59 997.49 997.48 997.56 997.71 997.93 998.19
Thickness
5656 5662 5663 5663 5665 5666 5659 5651 5643 5649 5651 5656 5658 5659 5659 5657 5655 5653 5651 5650 5649 5647 5646 5645 5645 5645 5644 5643 5643 5643 5641 5641 5640 5640 5639 5639 5638 5638 5637 5637 5636 5635 5635 5634
5649 5657 5657 5656 5661 5662 5660 5658 5653 5652 5650 5657 5657 5655 5653 5651 5650 5647 5645 5645 5644 5642 5640 5639 5638 5638 5637 5637 5636 5636 5634 5634 5634 5634 5633 5632 5632 5632 5631 5630 5629 5629 5629 5628
5633 5643 5647 5641 5654 5655 5655 5658 5654 5645 5648 5652 5649 5648 5646 5645 5643 5642 5640 5639 5638 5636 5634 5633 5633 5632 5632 5632 5630 5629 5629 5628 5628 5628 5627 5626 5626 5625 5624 5624 5623 5622 5622 5622
5623 5629 5623 5642 5658 5658 5652 5652 5654 5651 5649 5649 5647 5645 5644 5642 5639 5637 5636 5634 5632 5631 5629 5628 5628 5627 5626 5625 5624 5623 5623 5622 5622 5622 5621 5621 5620 5618 5618 5618 5617 5616 5615 5615
5612 5612 5620 5639 5652 5651 5645 5640 5646 5644 5643 5641 5640 5637 5635 5638 5636 5633 5632 5630 5628 5626 5625 5623 5621 5621 5619 5618 5617 5617 5616 5616 5616 5616 5616 5615 5614 5613 5612 5612 5611 5610 5609 5609
5607 5607 5608 5631 5647 5651 5642 5629 5638 5638 5635 5633 5630 5619 5622 5631 5631 5628 5627 5625 5622 5620 5619 5618 5617 5615 5613 5611 5611 5611 5611 5611 5611 5611 5610 5610 5609 5608 5607 5606 5605 5604 5603 5603
5602 5601 5611 5631 5641 5641 5620 5621 5632 5632 5630 5626 5620 5618 5622 5625 5623 5622 5620 5618 5616 5614 5612 5612 5611 5609 5607 5605 5605 5606 5606 5606 5605 5605 5605 5605 5603 5602 5601 5600 5598 5597 5596 5597
5596 5595 5606 5631 5631 5622 5620 5626 5626 5625 5624 5620 5618 5618 5617 5617 5615 5614 5612 5611 5609 5606 5605 5605 5604 5602 5601 5600 5601 5600 5599 5599 5599 5599 5599 5599 5596 5595 5593 5592 5590 5589 5589 5589
5604 5608 5620 5625 5625 5626 5623 5619 5619 5617 5617 5615 5612 5610 5610 5608 5607 5606 5605 5603 5602 5599 5598 5597 5597 5596 5595 5594 5594 5593 5592 5591 5591 5591 5590 5590 5588 5587 5585 5584 5582 5582 5581 5581
5603 5609 5615 5618 5619 5619 5618 5615 5613 5612 5610 5608 5605 5604 5602 5600 5599 5598 5597 5595 5594 5593 5591 5590 5590 5590 5589 5588 5587 5586 5584 5583 5582 5581 5580 5580 5580 5579 5577 5576 5575 5574 5574 5574
5598 5604 5607 5609 5610 5611 5610 5608 5606 5605 5604 5602 5599 5597 5595 5593 5592 5590 5589 5588 5588 5586 5584 5584 5584 5583 5583 5581 5579 5577 5575 5574 5573 5572 5571 5570 5569 5569 5569 5569 5569 5568 5568 5568
5594 5600 5597 5599 5604 5604 5601 5599 5598 5597 5595 5594 5592 5590 5588 5586 5585 5583 5582 5581 5580 5579 5578 5578 5577 5576 5576 5574 5572 5569 5567 5566 5564 5563 5562 5562 5561 5560 5561 5561 5562 5562 5562 5561
5600 5601 5598 5598 5598 5598 5595 5594 5592 5590 5588 5586 5586 5584 5582 5580 5578 5577 5576 5575 5574 5573 5573 5572 5571 5570 5569 5567 5565 5563 5560 5558 5557 5555 5554 5553 5552 5551 5551 5552 5553 5554 5554 5554
5598 5595 5591 5592 5590 5591 5589 5587 5586 5584 5582 5581 5579 5577 5575 5573 5572 5570 5569 5569 5568 5567 5566 5565 5564 5563 5562 5560 5558 5555 5553 5552 5550 5548 5546 5545 5545 5544 5544 5543 5543 5543 5544 5545
5592 5590 5587 5587 5585 5584 5582 5580 5577 5575 5574 5573 5572 5570 5568 5566 5564 5564 5564 5563 5562 5560 5559 5559 5557 5556 5555 5553 5551 5548 5546 5544 5542 5541 5539 5538 5537 5536 5535 5535 5535 5535 5535 5535
5585 5583 5581 5579 5577 5576 5574 5572 5569 5568 5567 5566 5564 5562 5561 5560 5559 5558 5558 5557 5554 5552 5552 5552 5550 5549 5548 5546 5544 5541 5539 5539 5537 5534 5532 5531 5530 5529 5527 5526 5526 5526 5525 5526
5575 5573 5572 5570 5570 5569 5568 5566 5564 5562 5560 5559 5557 5556 5554 5553 5552 5552 5551 5550 5548 5547 5546 5544 5543 5542 5541 5539 5537 5535 5533 5532 5532 5528 5526 5525 5523 5522 5520 5519 5518 5517 5517 5518
5574 5573 5570 5568 5566 5563 5561 5559 5558 5556 5554 5553 5552 5550 5548 5546 5545 5544 5544 5542 5540 5539 5538 5537 5536 5535 5533 5531 5530 5529 5527 5525 5523 5521 5520 5518 5516 5515 5513 5512 5511 5510 5510 5509
5569 5567 5565 5563 5560 5557 5554 5552 5551 5549 5549 5547 5545 5543 5541 5540 5539 5538 5537 5535 5533 5531 5531 5530 5530 5528 5526 5525 5524 5522 5520 5519 5516 5514 5513 5511 5509 5507 5506 5505 5504 5503 5502 5500
5562 5560 5558 5556 5554 5551 5548 5546 5545 5543 5542 5541 5539 5537 5535 5533 5532 5530 5529 5527 5526 5525 5524 5523 5521 5520 5519 5518 5517 5514 5513 5511 5509 5507 5505 5503 5501 5500 5498 5497 5496 5495 5494 5493
5554 5552 5550 5548 5546 5544 5542 5540 5538 5537 5536 5535 5532 5530 5528 5526 5525 5523 5521 5520 5519 5518 5517 5516 5514 5513 5512 5511 5509 5507 5505 5504 5502 5500 5498 5495 5494 5492 5491 5489 5488 5487 5486 5485
5545 5543 5541 5540 5537 5535 5534 5533 5531 5530 5530 5528 5525 5523 5521 5519 5518 5516 5515 5513 5513 5512 5510 5508 5507 5507 5506 5504 5501 5499 5498 5497 5495 5493 5490 5489 5487 5485 5484 5482 5480 5480 5479 5478
5536 5535 5533 5532 5530 5527 5526 5525 5524 5523 5522 5521 5519 5517 5515 5513 5511 5508 5507 5506 5505 5505 5503 5501 5500 5500 5499 5495 5493 5492 5490 5489 5487 5485 5484 5482 5480 5479 5477 5476 5475 5474 5473 5472
5530 5528 5527 5525 5523 5520 5518 5517 5517 5516 5515 5513 5512 5510 5508 5506 5503 5502 5501 5500 5499 5497 5495 5493 5493 5493 5491 5487 5485 5483 5482 5481 5480 5478 5476 5475 5473 5472 5471 5470 5469 5468 5467 5467
5524 5522 5520 5517 5515 5513 5512 5510 5509 5508 5507 5505 5504 5502 5501 5499 5497 5495 5493 5492 5491 5489 5487 5486 5485 5484 5481 5478 5477 5476 5474 5473 5472 5471 5469 5468 5467 5466 5465 5464 5463 5462 5462 5462
5517 5515 5513 5511 5509 5507 5505 5503 5501 5500 5498 5497 5495 5494 5493 5491 5489 5487 5486 5484 5483 5481 5478 5477 5476 5475 5472 5470 5469 5468 5466 5466 5464 5463 5461 5460 5459 5458 5458 5458 5457 5456 5456 5456
5510 5508 5506 5504 5503 5501 5499 5497 5494 5493 5491 5489 5487 5487 5486 5484 5482 5480 5478 5476 5475 5473 5471 5469 5468 5466 5465 5463 5462 5460 5458 5457 5456 5455 5454 5453 5452 5451 5451 5451 5450 5450 5450 5450